Volver al catálogo

STARLINK-3614

ActivoComunicacionesVLEO
NORAD 51771·PAYLOAD·🇺🇸 United States

Lanzado Feb 25, 2022 desde Vandenberg Space Force Base

Loading…

Próximos Pases (próximas 24 horas)

TLE

ActualizadoSource: CelesTrak SupGP

Época: Sep 14, 2026, 20:51 UTC

1 51771C 22017D   26257.86923611  .00007660  00000+0  21913-3 0  2575
2 51771  53.1582 197.8643 0001343  94.0058  38.2169 15.35399823    10

Sigue STARLINK-3614 en tiempo real con AllMySat

Download on the App Store